contact:dominique.lefevre@mio.osupytheas.fr, maurice.libes@osupytheas.fr, didier.mallarino@osupytheas.fr
Project:EMSO http://www.emso-fr.org/EMSO-France
Depth: 2436.0 m
Title:EMSO Ligure Ouest : Data MII capteur MICROCAT
DateTime_Computer,Latitude,Longitude,Temperature,Conductivity,Pressure,DateTime_Instrument
DateTime_Computer,Latitude,Longitude,degC,S m-1,dbar,DateTime_Instrument
2020-03-04T00:01:21Z,42.805,6.029,13.2993,4.60035,2470.007,2020-3-04T02:01:57Z
2020-03-04T00:04:24Z,42.805,6.029,13.2999,4.60033,2470.03,2020-3-04T02:05:00Z
2020-03-04T00:07:27Z,42.805,6.029,13.3004,4.60063,2470.03,2020-3-04T02:08:04Z
2020-03-04T00:10:31Z,42.805,6.029,13.2996,4.60021,2470.007,2020-3-04T02:11:07Z
2020-03-04T00:13:34Z,42.805,6.029,13.2984,4.60011,2470.03,2020-3-04T02:14:10Z
2020-03-04T00:16:37Z,42.805,6.029,13.2980,4.60049,2470.007,2020-3-04T02:17:13Z
2020-03-04T00:19:40Z,42.805,6.029,13.2993,4.60028,2470.077,2020-3-04T02:20:16Z
2020-03-04T00:22:43Z,42.805,6.029,13.2989,4.60046,2470.017,2020-3-04T02:23:20Z
2020-03-04T00:25:47Z,42.805,6.029,13.2998,4.60021,2469.993,2020-3-04T02:26:23Z
2020-03-04T00:28:50Z,42.805,6.029,13.2981,4.60061,2470.017,2020-3-04T02:29:26Z
2020-03-04T00:31:53Z,42.805,6.029,13.3000,4.60049,2470.007,2020-3-04T02:32:29Z
2020-03-04T00:34:56Z,42.805,6.029,13.2984,4.60038,2470.03,2020-3-04T02:35:32Z
2020-03-04T00:37:59Z,42.805,6.029,13.2998,4.60044,2470.03,2020-3-04T02:38:36Z
2020-03-04T00:41:03Z,42.805,6.029,13.2997,4.60014,2470.017,2020-3-04T02:41:39Z
2020-03-04T00:44:06Z,42.805,6.029,13.2991,4.60029,2470.053,2020-3-04T02:44:42Z
2020-03-04T00:47:09Z,42.805,6.029,13.3009,4.60054,2470.053,2020-3-04T02:47:45Z
2020-03-04T00:50:12Z,42.805,6.029,13.2989,4.60038,2470.04,2020-3-04T02:50:49Z
2020-03-04T00:53:15Z,42.805,6.029,13.2993,4.60052,2470.053,2020-3-04T02:53:52Z
2020-03-04T00:56:19Z,42.805,6.029,13.2991,4.60053,2470.063,2020-3-04T02:56:55Z
2020-03-04T00:59:22Z,42.805,6.029,13.2987,4.60059,2470.053,2020-3-04T02:59:58Z
2020-03-04T01:02:25Z,42.805,6.029,13.2993,4.60066,2470.063,2020-3-04T03:03:02Z
2020-03-04T01:05:29Z,42.805,6.029,13.2998,4.60058,2470.04,2020-3-04T03:06:05Z
2020-03-04T01:08:32Z,42.805,6.029,13.3001,4.60041,2470.053,2020-3-04T03:09:08Z
2020-03-04T01:11:35Z,42.805,6.029,13.2985,4.60063,2470.017,2020-3-04T03:12:11Z
2020-03-04T01:14:38Z,42.805,6.029,13.2993,4.60062,2470.03,2020-3-04T03:15:14Z
2020-03-04T01:17:41Z,42.805,6.029,13.2998,4.60057,2470.063,2020-3-04T03:18:18Z
2020-03-04T01:20:45Z,42.805,6.029,13.3020,4.60014,2470.077,2020-3-04T03:21:21Z
2020-03-04T01:23:48Z,42.805,6.029,13.2987,4.60064,2470.053,2020-3-04T03:24:24Z
2020-03-04T01:26:51Z,42.805,6.029,13.2995,4.60076,2470.053,2020-3-04T03:27:27Z
2020-03-04T01:29:54Z,42.805,6.029,13.2990,4.60044,2470.053,2020-3-04T03:30:31Z
2020-03-04T01:32:58Z,42.805,6.029,13.3015,4.60081,2470.04,2020-3-04T03:33:34Z
2020-03-04T01:36:01Z,42.805,6.029,13.2996,4.60029,2470.04,2020-3-04T03:36:37Z
2020-03-04T01:39:04Z,42.805,6.029,13.2986,4.60044,2470.053,2020-3-04T03:39:40Z
2020-03-04T01:42:07Z,42.805,6.029,13.2991,4.60081,2470.053,2020-3-04T03:42:43Z
2020-03-04T01:45:10Z,42.805,6.029,13.2998,4.60067,2470.053,2020-3-04T03:45:47Z
2020-03-04T01:48:14Z,42.805,6.029,13.3008,4.60084,2470.04,2020-3-04T03:48:50Z
2020-03-04T01:51:17Z,42.805,6.029,13.2996,4.60069,2470.04,2020-3-04T03:51:53Z
2020-03-04T01:54:20Z,42.805,6.029,13.2996,4.60048,2470.063,2020-3-04T03:54:56Z
2020-03-04T01:57:23Z,42.805,6.029,13.2992,4.60039,2470.077,2020-3-04T03:57:59Z
2020-03-04T02:00:26Z,42.805,6.029,13.3000,4.60003,2470.04,2020-3-04T04:01:03Z
2020-03-04T02:03:30Z,42.805,6.029,13.3011,4.60039,2470.04,2020-3-04T04:04:06Z
2020-03-04T02:06:33Z,42.805,6.029,13.2995,4.60029,2470.1,2020-3-04T04:07:09Z
2020-03-04T02:09:36Z,42.805,6.029,13.3004,4.60021,2470.04,2020-3-04T04:10:12Z
2020-03-04T02:12:39Z,42.805,6.029,13.2995,4.60024,2470.077,2020-3-04T04:13:15Z
2020-03-04T02:15:42Z,42.805,6.029,13.2988,4.60020,2470.063,2020-3-04T04:16:19Z
2020-03-04T02:18:46Z,42.805,6.029,13.2992,4.60061,2470.063,2020-3-04T04:19:22Z
2020-03-04T02:21:49Z,42.805,6.029,13.3000,4.60081,2470.04,2020-3-04T04:22:25Z
2020-03-04T02:24:52Z,42.805,6.029,13.2993,4.60060,2470.063,2020-3-04T04:25:28Z
2020-03-04T02:27:55Z,42.805,6.029,13.3000,4.60023,2470.04,2020-3-04T04:28:31Z
2020-03-04T02:30:58Z,42.805,6.029,13.3011,4.60034,2470.077,2020-3-04T04:31:35Z
2020-03-04T02:34:02Z,42.805,6.029,13.2994,4.60049,2470.077,2020-3-04T04:34:38Z
2020-03-04T02:37:05Z,42.805,6.029,13.2995,4.60068,2470.077,2020-3-04T04:37:41Z
2020-03-04T02:40:08Z,42.805,6.029,13.3023,4.60057,2470.04,2020-3-04T04:40:44Z
2020-03-04T02:43:11Z,42.805,6.029,13.3004,4.60067,2470.04,2020-3-04T04:43:47Z
2020-03-04T02:46:14Z,42.805,6.029,13.3037,4.60054,2470.063,2020-3-04T04:46:51Z
2020-03-04T02:49:18Z,42.805,6.029,13.2994,4.60006,2470.053,2020-3-04T04:49:54Z
2020-03-04T02:52:21Z,42.805,6.029,13.3020,4.60014,2470.063,2020-3-04T04:52:57Z
2020-03-04T02:55:24Z,42.805,6.029,13.3031,4.60011,2470.077,2020-3-04T04:56:00Z
2020-03-04T02:58:27Z,42.805,6.029,13.3002,4.60050,2470.053,2020-3-04T04:59:04Z
2020-03-04T03:01:30Z,42.805,6.029,13.3034,4.60027,2470.1,2020-3-04T05:02:07Z
2020-03-04T03:04:34Z,42.805,6.029,13.3008,4.60027,2470.1,2020-3-04T05:05:10Z
2020-03-04T03:07:37Z,42.805,6.029,13.3002,4.60030,2470.077,2020-3-04T05:08:13Z
2020-03-04T03:10:40Z,42.805,6.029,13.3011,4.60051,2470.063,2020-3-04T05:11:16Z
2020-03-04T03:13:43Z,42.805,6.029,13.3026,4.60014,2470.04,2020-3-04T05:14:20Z
2020-03-04T03:16:46Z,42.805,6.029,13.3043,4.59994,2470.04,2020-3-04T05:17:23Z
2020-03-04T03:19:50Z,42.805,6.029,13.3037,4.60019,2470.077,2020-3-04T05:20:26Z
2020-03-04T03:22:53Z,42.805,6.029,13.3048,4.59988,2470.063,2020-3-04T05:23:29Z
2020-03-04T03:25:56Z,42.805,6.029,13.3017,4.59992,2470.077,2020-3-04T05:26:32Z
2020-03-04T03:28:59Z,42.805,6.029,13.3036,4.60001,2470.087,2020-3-04T05:29:36Z
2020-03-04T03:32:03Z,42.805,6.029,13.3029,4.59993,2470.053,2020-3-04T05:32:39Z
2020-03-04T03:35:06Z,42.805,6.029,13.3099,4.60005,2470.053,2020-3-04T05:35:42Z
2020-03-04T03:38:09Z,42.805,6.029,13.2976,4.60009,2470.1,2020-3-04T05:38:45Z
2020-03-04T03:41:12Z,42.805,6.029,13.2984,4.60048,2470.087,2020-3-04T05:41:48Z
2020-03-04T03:44:15Z,42.805,6.029,13.2980,4.60011,2470.077,2020-3-04T05:44:52Z
2020-03-04T03:47:19Z,42.805,6.029,13.2970,4.59986,2470.04,2020-3-04T05:47:55Z
2020-03-04T03:50:22Z,42.805,6.029,13.2969,4.59985,2470.1,2020-3-04T05:50:58Z
2020-03-04T03:53:25Z,42.805,6.029,13.2974,4.59989,2470.063,2020-3-04T05:54:01Z
2020-03-04T03:56:28Z,42.805,6.029,13.2971,4.59984,2470.077,2020-3-04T05:57:04Z
2020-03-04T03:59:31Z,42.805,6.029,13.2972,4.59990,2470.087,2020-3-04T06:00:08Z
2020-03-04T04:02:35Z,42.805,6.029,13.2970,4.59992,2470.1,2020-3-04T06:03:11Z
2020-03-04T04:05:38Z,42.805,6.029,13.2970,4.59984,2470.053,2020-3-04T06:06:14Z
2020-03-04T04:08:41Z,42.805,6.029,13.2970,4.59994,2470.053,2020-3-04T06:09:17Z
2020-03-04T04:11:44Z,42.805,6.029,13.2971,4.59973,2470.087,2020-3-04T06:12:20Z
2020-03-04T04:14:47Z,42.805,6.029,13.2967,4.59973,2470.063,2020-3-04T06:15:24Z
2020-03-04T04:17:50Z,42.805,6.029,13.2973,4.59973,2470.087,2020-3-04T06:18:27Z
2020-03-04T04:20:54Z,42.805,6.029,13.2968,4.59973,2470.087,2020-3-04T06:21:30Z
2020-03-04T04:23:57Z,42.805,6.029,13.2967,4.59974,2470.077,2020-3-04T06:24:33Z
2020-03-04T04:27:00Z,42.805,6.029,13.2964,4.59977,2470.077,2020-3-04T06:27:36Z
2020-03-04T04:30:03Z,42.805,6.029,13.2963,4.59976,2470.077,2020-3-04T06:30:40Z
2020-03-04T04:33:06Z,42.805,6.029,13.2970,4.59974,2470.124,2020-3-04T06:33:43Z
2020-03-04T04:36:10Z,42.805,6.029,13.2968,4.59978,2470.1,2020-3-04T06:36:46Z
2020-03-04T04:39:13Z,42.805,6.029,13.2968,4.59974,2470.087,2020-3-04T06:39:49Z
2020-03-04T04:42:16Z,42.805,6.029,13.2969,4.59973,2470.11,2020-3-04T06:42:52Z
2020-03-04T04:45:19Z,42.805,6.029,13.2969,4.59973,2470.077,2020-3-04T06:45:55Z
2020-03-04T04:48:22Z,42.805,6.029,13.2970,4.59973,2470.087,2020-3-04T06:48:59Z
2020-03-04T04:51:26Z,42.805,6.029,13.2967,4.59973,2470.087,2020-3-04T06:52:02Z
2020-03-04T04:54:29Z,42.805,6.029,13.2971,4.59972,2470.087,2020-3-04T06:55:05Z
2020-03-04T04:57:32Z,42.805,6.029,13.2967,4.59974,2470.077,2020-3-04T06:58:08Z
2020-03-04T05:00:35Z,42.805,6.029,13.2970,4.59971,2470.087,2020-3-04T07:01:12Z
2020-03-04T05:03:39Z,42.805,6.029,13.2969,4.59976,2470.063,2020-3-04T07:04:15Z
2020-03-04T05:06:42Z,42.805,6.029,13.2967,4.59982,2470.087,2020-3-04T07:07:18Z
2020-03-04T05:09:45Z,42.805,6.029,13.2967,4.59976,2470.077,2020-3-04T07:10:21Z
2020-03-04T05:12:48Z,42.805,6.029,13.2970,4.59973,2470.1,2020-3-04T07:13:24Z
2020-03-04T05:15:51Z,42.805,6.029,13.2969,4.59973,2470.087,2020-3-04T07:16:28Z
2020-03-04T05:18:55Z,42.805,6.029,13.2968,4.59973,2470.087,2020-3-04T07:19:31Z
2020-03-04T05:21:58Z,42.805,6.029,13.2971,4.59973,2470.077,2020-3-04T07:22:34Z
2020-03-04T05:25:01Z,42.805,6.029,13.2968,4.59973,2470.11,2020-3-04T07:25:38Z
2020-03-04T05:28:04Z,42.805,6.029,13.2972,4.59973,2470.063,2020-3-04T07:28:41Z
2020-03-04T05:31:08Z,42.805,6.029,13.2968,4.59971,2470.087,2020-3-04T07:31:44Z
2020-03-04T05:34:11Z,42.805,6.029,13.2967,4.59971,2470.087,2020-3-04T07:34:47Z
2020-03-04T05:37:14Z,42.805,6.029,13.2968,4.59972,2470.1,2020-3-04T07:37:50Z
2020-03-04T05:40:17Z,42.805,6.029,13.2968,4.59988,2470.1,2020-3-04T07:40:54Z
2020-03-04T05:43:21Z,42.805,6.029,13.2969,4.59973,2470.087,2020-3-04T07:43:57Z
2020-03-04T05:46:24Z,42.805,6.029,13.2975,4.59974,2470.063,2020-3-04T07:47:00Z
2020-03-04T05:49:27Z,42.805,6.029,13.2972,4.59973,2470.087,2020-3-04T07:50:03Z
2020-03-04T05:52:30Z,42.805,6.029,13.2969,4.59973,2470.1,2020-3-04T07:53:06Z
2020-03-04T05:55:33Z,42.805,6.029,13.2971,4.59974,2470.087,2020-3-04T07:56:10Z
2020-03-04T05:58:36Z,42.805,6.029,13.2972,4.59973,2470.11,2020-3-04T07:59:13Z
2020-03-04T06:01:40Z,42.805,6.029,13.2971,4.59973,2470.087,2020-3-04T08:02:16Z
2020-03-04T06:04:43Z,42.805,6.029,13.2967,4.59976,2470.11,2020-3-04T08:05:19Z
2020-03-04T06:07:46Z,42.805,6.029,13.2971,4.59973,2470.124,2020-3-04T08:08:22Z
2020-03-04T06:10:49Z,42.805,6.029,13.2965,4.59973,2470.063,2020-3-04T08:11:26Z
2020-03-04T06:13:53Z,42.805,6.029,13.2972,4.59973,2470.1,2020-3-04T08:14:29Z
2020-03-04T06:16:56Z,42.805,6.029,13.2971,4.59976,2470.063,2020-3-04T08:17:32Z
2020-03-04T06:19:59Z,42.805,6.029,13.2970,4.59973,2470.1,2020-3-04T08:20:35Z
2020-03-04T06:23:02Z,42.805,6.029,13.2968,4.59972,2470.077,2020-3-04T08:23:38Z
2020-03-04T06:26:05Z,42.805,6.029,13.2973,4.59983,2470.04,2020-3-04T08:26:42Z
2020-03-04T06:29:09Z,42.805,6.029,13.2969,4.59973,2470.087,2020-3-04T08:29:45Z
2020-03-04T06:32:12Z,42.805,6.029,13.2969,4.59972,2470.1,2020-3-04T08:32:48Z
2020-03-04T06:35:15Z,42.805,6.029,13.2968,4.59974,2470.077,2020-3-04T08:35:51Z
2020-03-04T06:38:18Z,42.805,6.029,13.2971,4.59973,2470.04,2020-3-04T08:38:55Z
2020-03-04T06:41:22Z,42.805,6.029,13.2973,4.59973,2470.087,2020-3-04T08:41:58Z
2020-03-04T06:44:25Z,42.805,6.029,13.2971,4.59971,2470.087,2020-3-04T08:45:01Z
2020-03-04T06:47:28Z,42.805,6.029,13.2971,4.59973,2470.053,2020-3-04T08:48:04Z
2020-03-04T06:50:31Z,42.805,6.029,13.2969,4.59972,2470.1,2020-3-04T08:51:07Z
2020-03-04T06:53:34Z,42.805,6.029,13.2969,4.59973,2470.087,2020-3-04T08:54:11Z
2020-03-04T06:56:38Z,42.805,6.029,13.2973,4.59973,2470.063,2020-3-04T08:57:14Z
2020-03-04T06:59:41Z,42.805,6.029,13.2969,4.59976,2470.063,2020-3-04T09:00:17Z
2020-03-04T07:02:44Z,42.805,6.029,13.2968,4.59975,2470.1,2020-3-04T09:03:20Z
2020-03-04T07:05:47Z,42.805,6.029,13.2968,4.59973,2470.087,2020-3-04T09:06:24Z
2020-03-04T07:08:50Z,42.805,6.029,13.2967,4.59971,2470.077,2020-3-04T09:09:27Z
2020-03-04T07:11:54Z,42.805,6.029,13.2970,4.59972,2470.063,2020-3-04T09:12:30Z
2020-03-04T07:14:57Z,42.805,6.029,13.2968,4.59970,2470.063,2020-3-04T09:15:33Z
2020-03-04T07:18:00Z,42.805,6.029,13.2974,4.59973,2470.1,2020-3-04T09:18:36Z
2020-03-04T07:21:03Z,42.805,6.029,13.2974,4.59974,2470.04,2020-3-04T09:21:40Z
2020-03-04T07:24:07Z,42.805,6.029,13.2969,4.59973,2470.063,2020-3-04T09:24:43Z
2020-03-04T07:27:10Z,42.805,6.029,13.2973,4.59972,2470.087,2020-3-04T09:27:46Z
2020-03-04T07:30:13Z,42.805,6.029,13.2972,4.59971,2470.087,2020-3-04T09:30:49Z
2020-03-04T07:33:16Z,42.805,6.029,13.2968,4.59971,2470.063,2020-3-04T09:33:52Z
2020-03-04T07:36:19Z,42.805,6.029,13.2969,4.59972,2470.063,2020-3-04T09:36:56Z
2020-03-04T07:39:23Z,42.805,6.029,13.2964,4.59972,2470.063,2020-3-04T09:39:59Z
2020-03-04T07:42:26Z,42.805,6.029,13.2968,4.59973,2470.04,2020-3-04T09:43:02Z
2020-03-04T07:45:29Z,42.805,6.029,13.2973,4.59971,2470.053,2020-3-04T09:46:05Z
2020-03-04T07:48:32Z,42.805,6.029,13.2971,4.59975,2470.04,2020-3-04T09:49:09Z
2020-03-04T07:51:36Z,42.805,6.029,13.2974,4.59976,2470.063,2020-3-04T09:52:12Z
2020-03-04T07:54:39Z,42.805,6.029,13.2968,4.59973,2470.063,2020-3-04T09:55:15Z
2020-03-04T07:57:42Z,42.805,6.029,13.2972,4.59973,2470.077,2020-3-04T09:58:18Z
2020-03-04T08:00:45Z,42.805,6.029,13.2971,4.59971,2470.1,2020-3-04T10:01:21Z
2020-03-04T08:03:48Z,42.805,6.029,13.2968,4.59970,2470.077,2020-3-04T10:04:25Z
2020-03-04T08:06:52Z,42.805,6.029,13.2968,4.59976,2470.077,2020-3-04T10:07:28Z
2020-03-04T08:09:55Z,42.805,6.029,13.2970,4.59971,2470.053,2020-3-04T10:10:31Z
2020-03-04T08:12:58Z,42.805,6.029,13.2967,4.59971,2470.063,2020-3-04T10:13:34Z
2020-03-04T08:16:01Z,42.805,6.029,13.2972,4.59971,2470.063,2020-3-04T10:16:38Z
2020-03-04T08:19:04Z,42.805,6.029,13.2970,4.59971,2470.04,2020-3-04T10:19:41Z
2020-03-04T08:22:08Z,42.805,6.029,13.2968,4.59971,2470.053,2020-3-04T10:22:44Z
2020-03-04T08:25:11Z,42.805,6.029,13.2968,4.59971,2470.03,2020-3-04T10:25:47Z
2020-03-04T08:28:14Z,42.805,6.029,13.2971,4.59971,2470.053,2020-3-04T10:28:50Z
2020-03-04T08:31:17Z,42.805,6.029,13.2971,4.59972,2470.087,2020-3-04T10:31:54Z
2020-03-04T08:34:21Z,42.805,6.029,13.2972,4.59976,2470.063,2020-3-04T10:34:57Z
2020-03-04T08:37:24Z,42.805,6.029,13.2972,4.59970,2470.04,2020-3-04T10:38:00Z
2020-03-04T08:40:27Z,42.805,6.029,13.2964,4.59971,2470.063,2020-3-04T10:41:03Z
2020-03-04T08:43:30Z,42.805,6.029,13.2970,4.59976,2470.04,2020-3-04T10:44:07Z
2020-03-04T08:46:33Z,42.805,6.029,13.2969,4.59971,2470.017,2020-3-04T10:47:10Z
2020-03-04T08:49:37Z,42.805,6.029,13.2971,4.59977,2470.077,2020-3-04T10:50:13Z
2020-03-04T08:52:40Z,42.805,6.029,13.2973,4.59978,2470.04,2020-3-04T10:53:16Z
2020-03-04T08:55:43Z,42.805,6.029,13.2974,4.59971,2470.077,2020-3-04T10:56:19Z
2020-03-04T08:58:46Z,42.805,6.029,13.2974,4.59971,2470.053,2020-3-04T10:59:23Z
2020-03-04T09:01:49Z,42.805,6.029,13.2972,4.59972,2470.017,2020-3-04T11:02:26Z
2020-03-04T09:04:53Z,42.805,6.029,13.2972,4.59981,2470.053,2020-3-04T11:05:29Z
2020-03-04T11:28:08Z,42.805,6.029,13.2969,4.59973,2470.017,2020-3-04T13:28:44Z
2020-03-04T11:31:11Z,42.805,6.029,13.2970,4.59971,2470.04,2020-3-04T13:31:48Z
2020-03-04T11:34:15Z,42.805,6.029,13.2971,4.59972,2470.017,2020-3-04T13:34:51Z
2020-03-04T11:37:18Z,42.805,6.029,13.2974,4.59971,2470.04,2020-3-04T13:37:54Z
2020-03-04T11:40:21Z,42.805,6.029,13.2974,4.59971,2470.017,2020-3-04T13:40:57Z
2020-03-04T11:43:24Z,42.805,6.029,13.2972,4.59972,2470.03,2020-3-04T13:44:01Z
2020-03-04T11:46:28Z,42.805,6.029,13.2972,4.59976,2470.03,2020-3-04T13:47:04Z
2020-03-04T11:49:31Z,42.805,6.029,13.2971,4.59975,2470.007,2020-3-04T13:50:07Z
2020-03-04T11:52:34Z,42.805,6.029,13.2971,4.59972,2470.03,2020-3-04T13:53:10Z
2020-03-04T11:55:37Z,42.805,6.029,13.2971,4.59972,2470.017,2020-3-04T13:56:14Z
2020-03-04T11:58:41Z,42.805,6.029,13.2970,4.59976,2469.993,2020-3-04T13:59:17Z
2020-03-04T12:01:44Z,42.805,6.029,13.2970,4.59973,2470.03,2020-3-04T14:02:20Z
2020-03-04T12:04:47Z,42.805,6.029,13.2971,4.59974,2470.017,2020-3-04T14:05:23Z
2020-03-04T12:07:50Z,42.805,6.029,13.2973,4.59971,2469.993,2020-3-04T14:08:27Z
2020-03-04T12:10:54Z,42.805,6.029,13.2974,4.59972,2469.979,2020-3-04T14:11:30Z
2020-03-04T12:13:57Z,42.805,6.029,13.2971,4.59972,2470.017,2020-3-04T14:14:33Z
2020-03-04T12:17:00Z,42.805,6.029,13.2971,4.59975,2470.04,2020-3-04T14:17:36Z
2020-03-04T12:20:03Z,42.805,6.029,13.2973,4.59973,2470.017,2020-3-04T14:20:39Z
2020-03-04T12:23:06Z,42.805,6.029,13.2971,4.59972,2470.053,2020-3-04T14:23:43Z
2020-03-04T12:26:10Z,42.805,6.029,13.2971,4.59971,2469.993,2020-3-04T14:26:46Z
2020-03-04T12:29:13Z,42.805,6.029,13.2969,4.59971,2470.03,2020-3-04T14:29:49Z
2020-03-04T12:32:16Z,42.805,6.029,13.2969,4.59973,2470.007,2020-3-04T14:32:52Z
2020-03-04T12:35:19Z,42.805,6.029,13.2969,4.59973,2470.017,2020-3-04T14:35:56Z
2020-03-04T12:38:22Z,42.805,6.029,13.2974,4.59970,2470.017,2020-3-04T14:38:59Z
2020-03-04T12:41:26Z,42.805,6.029,13.2969,4.59973,2470.017,2020-3-04T14:42:02Z
2020-03-04T12:44:29Z,42.805,6.029,13.2971,4.59971,2469.993,2020-3-04T14:45:05Z
2020-03-04T12:47:32Z,42.805,6.029,13.2968,4.59971,2470.04,2020-3-04T14:48:08Z
2020-03-04T12:50:35Z,42.805,6.029,13.2971,4.59972,2470.017,2020-3-04T14:51:12Z
2020-03-04T12:53:38Z,42.805,6.029,13.2967,4.59970,2470.017,2020-3-04T14:54:15Z
2020-03-04T12:56:42Z,42.805,6.029,13.2968,4.59971,2470.007,2020-3-04T14:57:18Z
2020-03-04T12:59:45Z,42.805,6.029,13.2968,4.59970,2470.017,2020-3-04T15:00:21Z
2020-03-04T13:02:48Z,42.805,6.029,13.2972,4.59978,2470.017,2020-3-04T15:03:24Z
2020-03-04T13:05:51Z,42.805,6.029,13.2979,4.59981,2470.053,2020-3-04T15:06:28Z
2020-03-04T13:08:54Z,42.805,6.029,13.2971,4.59976,2470.017,2020-3-04T15:09:31Z
2020-03-04T13:11:58Z,42.805,6.029,13.2986,4.59996,2470.053,2020-3-04T15:12:34Z
2020-03-04T13:15:01Z,42.805,6.029,13.2988,4.59986,2470.04,2020-3-04T15:15:37Z
2020-03-04T13:18:04Z,42.805,6.029,13.2977,4.59992,2470.04,2020-3-04T15:18:40Z
2020-03-04T13:21:07Z,42.805,6.029,13.2986,4.59991,2470.03,2020-3-04T15:21:44Z
2020-03-04T13:24:10Z,42.805,6.029,13.2996,4.59984,2470.03,2020-3-04T15:24:47Z
2020-03-04T13:27:14Z,42.805,6.029,13.2983,4.59993,2470.017,2020-3-04T15:27:50Z
2020-03-04T13:30:17Z,42.805,6.029,13.2983,4.59994,2470.03,2020-3-04T15:30:53Z
2020-03-04T13:33:21Z,42.805,6.029,13.2985,4.60014,2470.04,2020-3-04T15:33:57Z
2020-03-04T13:36:24Z,42.805,6.029,13.2982,4.60009,2470.017,2020-3-04T15:37:00Z
2020-03-04T13:39:27Z,42.805,6.029,13.2978,4.60014,2470.04,2020-3-04T15:40:03Z
2020-03-04T13:42:30Z,42.805,6.029,13.2992,4.60009,2469.993,2020-3-04T15:43:07Z
2020-03-04T13:45:34Z,42.805,6.029,13.2982,4.59988,2470.03,2020-3-04T15:46:10Z
2020-03-04T13:48:37Z,42.805,6.029,13.2986,4.60010,2470.04,2020-3-04T15:49:13Z
2020-03-04T13:51:40Z,42.805,6.029,13.2969,4.59978,2470.017,2020-3-04T15:52:16Z
2020-03-04T13:54:43Z,42.805,6.029,13.2979,4.59994,2469.993,2020-3-04T15:55:19Z
2020-03-04T13:57:46Z,42.805,6.029,13.2983,4.60000,2469.984,2020-3-04T15:58:23Z
2020-03-04T14:00:50Z,42.805,6.029,13.2987,4.59999,2469.993,2020-3-04T16:01:26Z
2020-03-04T14:03:53Z,42.805,6.029,13.2984,4.59999,2469.993,2020-3-04T16:04:29Z
2020-03-04T14:06:56Z,42.805,6.029,13.2986,4.60002,2470.04,2020-3-04T16:07:32Z
2020-03-04T14:10:00Z,42.805,6.029,13.2988,4.60024,2469.984,2020-3-04T16:10:36Z
2020-03-04T14:13:03Z,42.805,6.029,13.2996,4.60024,2470.03,2020-3-04T16:13:39Z
2020-03-04T14:16:06Z,42.805,6.029,13.2983,4.60019,2470.03,2020-3-04T16:16:42Z
2020-03-04T14:19:09Z,42.805,6.029,13.2980,4.60007,2470.007,2020-3-04T16:19:46Z
2020-03-04T14:22:13Z,42.805,6.029,13.2976,4.60024,2469.993,2020-3-04T16:22:49Z
2020-03-04T14:25:16Z,42.805,6.029,13.2990,4.60006,2470.007,2020-3-04T16:25:52Z
2020-03-04T14:28:19Z,42.805,6.029,13.2993,4.60068,2470.03,2020-3-04T16:28:55Z
2020-03-04T14:31:22Z,42.805,6.029,13.2986,4.60018,2469.993,2020-3-04T16:31:59Z
2020-03-04T14:34:26Z,42.805,6.029,13.2993,4.59993,2469.984,2020-3-04T16:35:02Z
2020-03-04T14:37:29Z,42.805,6.029,13.2990,4.60018,2470.017,2020-3-04T16:38:05Z
2020-03-04T14:40:32Z,42.805,6.029,13.2991,4.59993,2470.017,2020-3-04T16:41:08Z
2020-03-04T14:43:35Z,42.805,6.029,13.2979,4.60030,2469.993,2020-3-04T16:44:11Z
2020-03-04T14:46:38Z,42.805,6.029,13.2981,4.60023,2470.017,2020-3-04T16:47:15Z
2020-03-04T14:49:42Z,42.805,6.029,13.2989,4.60026,2469.993,2020-3-04T16:50:18Z
2020-03-04T14:52:45Z,42.805,6.029,13.2978,4.60016,2470.03,2020-3-04T16:53:21Z
2020-03-04T14:55:48Z,42.805,6.029,13.2999,4.60041,2470.017,2020-3-04T16:56:24Z
2020-03-04T14:58:51Z,42.805,6.029,13.2986,4.60060,2470.007,2020-3-04T16:59:28Z
2020-03-04T15:01:55Z,42.805,6.029,13.2985,4.60041,2470.017,2020-3-04T17:02:31Z
2020-03-04T15:04:58Z,42.805,6.029,13.2986,4.60078,2469.984,2020-3-04T17:05:34Z
2020-03-04T15:08:01Z,42.805,6.029,13.2996,4.60019,2469.993,2020-3-04T17:08:37Z
2020-03-04T15:11:04Z,42.805,6.029,13.3002,4.60031,2469.97,2020-3-04T17:11:40Z
2020-03-04T15:14:07Z,42.805,6.029,13.2984,4.60019,2469.993,2020-3-04T17:14:44Z
2020-03-04T15:17:11Z,42.805,6.029,13.2996,4.60031,2470.007,2020-3-04T17:17:47Z
2020-03-04T15:20:14Z,42.805,6.029,13.3001,4.60008,2469.993,2020-3-04T17:20:50Z
2020-03-04T15:23:17Z,42.805,6.029,13.2982,4.60024,2470.007,2020-3-04T17:23:53Z
2020-03-04T15:26:20Z,42.805,6.029,13.2987,4.60052,2470.03,2020-3-04T17:26:57Z
2020-03-04T15:29:24Z,42.805,6.029,13.2991,4.60066,2469.97,2020-3-04T17:30:00Z
2020-03-04T15:32:27Z,42.805,6.029,13.2988,4.60049,2470.007,2020-3-04T17:33:03Z
2020-03-04T15:35:30Z,42.805,6.029,13.2986,4.60046,2470.017,2020-3-04T17:36:06Z
2020-03-04T15:38:33Z,42.805,6.029,13.2983,4.60042,2470.007,2020-3-04T17:39:10Z
2020-03-04T15:41:37Z,42.805,6.029,13.2991,4.60044,2470.03,2020-3-04T17:42:13Z
2020-03-04T15:44:40Z,42.805,6.029,13.2986,4.60051,2469.97,2020-3-04T17:45:16Z
2020-03-04T15:47:43Z,42.805,6.029,13.2985,4.60035,2469.96,2020-3-04T17:48:19Z
2020-03-04T15:50:46Z,42.805,6.029,13.2987,4.60026,2469.97,2020-3-04T17:51:22Z
2020-03-04T15:53:49Z,42.805,6.029,13.2983,4.60037,2470.007,2020-3-04T17:54:26Z
2020-03-04T15:56:53Z,42.805,6.029,13.3007,4.60050,2470.007,2020-3-04T17:57:29Z
2020-03-04T15:59:56Z,42.805,6.029,13.2986,4.60056,2469.984,2020-3-04T18:00:32Z
2020-03-04T16:02:59Z,42.805,6.029,13.3031,4.60062,2470.007,2020-3-04T18:03:35Z
2020-03-04T16:06:02Z,42.805,6.029,13.3007,4.60052,2469.993,2020-3-04T18:06:39Z
2020-03-04T16:09:05Z,42.805,6.029,13.3015,4.60058,2469.97,2020-3-04T18:09:42Z
2020-03-04T16:12:09Z,42.805,6.029,13.2991,4.60042,2469.97,2020-3-04T18:12:45Z
2020-03-04T16:15:12Z,42.805,6.029,13.2993,4.60017,2470.03,2020-3-04T18:15:48Z
2020-03-04T16:18:15Z,42.805,6.029,13.2988,4.60081,2469.993,2020-3-04T18:18:51Z
2020-03-04T16:21:18Z,42.805,6.029,13.2988,4.60055,2469.97,2020-3-04T18:21:54Z
2020-03-04T16:24:21Z,42.805,6.029,13.2990,4.60031,2469.947,2020-3-04T18:24:58Z
2020-03-04T16:27:25Z,42.805,6.029,13.2998,4.60028,2469.97,2020-3-04T18:28:01Z
2020-03-04T16:30:28Z,42.805,6.029,13.2991,4.60072,2469.947,2020-3-04T18:31:04Z
2020-03-04T16:33:31Z,42.805,6.029,13.3004,4.60069,2469.984,2020-3-04T18:34:07Z
2020-03-04T16:36:34Z,42.805,6.029,13.3034,4.60014,2469.97,2020-3-04T18:37:11Z
2020-03-04T16:39:37Z,42.805,6.029,13.2990,4.60020,2469.993,2020-3-04T18:40:14Z
2020-03-04T16:42:41Z,42.805,6.029,13.3039,4.60029,2469.947,2020-3-04T18:43:17Z
2020-03-04T16:45:44Z,42.805,6.029,13.3036,4.60027,2469.97,2020-3-04T18:46:20Z
2020-03-04T16:48:47Z,42.805,6.029,13.3017,4.60028,2469.947,2020-3-04T18:49:23Z
2020-03-04T16:51:50Z,42.805,6.029,13.3011,4.60024,2470.007,2020-3-04T18:52:27Z
2020-03-04T16:54:53Z,42.805,6.029,13.3017,4.60019,2469.923,2020-3-04T18:55:30Z
2020-03-04T16:57:57Z,42.805,6.029,13.3039,4.60037,2469.984,2020-3-04T18:58:33Z
2020-03-04T17:01:00Z,42.805,6.029,13.2997,4.60049,2469.96,2020-3-04T19:01:36Z
2020-03-04T17:04:03Z,42.805,6.029,13.3009,4.60046,2469.984,2020-3-04T19:04:39Z
2020-03-04T17:07:06Z,42.805,6.029,13.3034,4.60045,2469.947,2020-3-04T19:07:43Z
2020-03-04T17:10:09Z,42.805,6.029,13.3054,4.60029,2469.97,2020-3-04T19:10:46Z
2020-03-04T17:13:13Z,42.805,6.029,13.3067,4.60027,2469.97,2020-3-04T19:13:49Z
2020-03-04T17:16:16Z,42.805,6.029,13.3069,4.60028,2469.923,2020-3-04T19:16:52Z
2020-03-04T17:19:19Z,42.805,6.029,13.3033,4.60026,2469.947,2020-3-04T19:19:55Z
2020-03-04T17:22:22Z,42.805,6.029,13.3042,4.60026,2469.937,2020-3-04T19:22:59Z
2020-03-04T17:25:26Z,42.805,6.029,13.3025,4.60044,2469.947,2020-3-04T19:26:02Z
2020-03-04T17:28:29Z,42.805,6.029,13.3024,4.60022,2469.984,2020-3-04T19:29:05Z
2020-03-04T17:31:32Z,42.805,6.029,13.3031,4.59999,2469.96,2020-3-04T19:32:08Z
2020-03-04T17:34:35Z,42.805,6.029,13.2998,4.60005,2469.923,2020-3-04T19:35:12Z